Location: Beutels
(47.8767°N, 9.8584°E)
Time: 06:30:55
(UTC+00:00)

Cosmos 1656 - Pass Details

Date: 19 May 2025
Orbit: 797 x 848 km, 71.1° (Epoch: 22 June)

Event Time Altitude Azimuth Distance (km) Brightness Sun altitude
Rises 19:50:02 0° 331° (NNW) 3,407 8.5 -7.9°
Reaches altitude 10° 19:52:30 10° 329° (NNW) 2,463 7.6 -8.2°
Maximum altitude 19:58:08 72° 247° (WSW) 876 3.9 -8.9°
Drops below altitude 10° 20:03:38 10° 164° (SSE) 2,414 5.5 -9.5°
Enters shadow 20:04:02 - 163° (SSE) 2,566 5.7 -9.6°
